Погода в Маркове

Россия / Костромская область     58°54′44″N   46°39′30″E
темп.,
°C
ветер,
м/с
пор.,
м/с
влажн.,
%
обл.,
%
осадки,
мм/ч
давл.,
гПа
погр.,
м
13 апреля, вт
вт1300:00+3ююв3899100 0.0 1037259
03:00+3ююв3897100 0.0 1036357
06:00+3юв310100100 0.0 1034321
09:00+4ю41099100 0.0 1033389
12:00+6ю31099100 0.0 1032352
15:00+8ю4999100 0.0 1030386
18:00+9ююз4894100 0.0 1028296
21:00+8ю389498 0.0 1028256
14 апреля, ср
ср1400:00+5ююв3999100 0.0 1027185
03:00+4ю269552 0.0 1027111
06:00+5ю3109071 0.0 1026187
09:00+11ююз497387 0.0 1025310
12:00+15ююз595955 0.0 1024663
15:00+16ююз585535 0.0 10231102
18:00+13ю4107070 0.0 1022270
21:00+9ююз3128257 0.0 1021241
15 апреля, чт
чт1500:00+7ююз31086100 0.0 1020182
03:00+6ююз3889100 0.0 1020121
06:00+6зюз2588100 0.0 101993
09:00+11ссз2372100 0.0 1019376
12:00+8с6883100 0.0 1021499
15:00+5ссв61285100 0.0 1023620
18:00+4ссв41190100 0.3 1025597
21:00+4ссв31089100 0.3 1026590
16 апреля, пт
пт1600:00+2св31173100 0.0 1027384
03:000ссв3108267 0.0 1029230
06:000св39755 0.0 1030313
09:00+5всв355118 0.0 1030871
12:00+8св34417 0.0 10291285
15:00+9ссв333654 0.0 10291486
18:00+7с255122 0.0 1029131
21:00+3ссв226863 0.0 103032
17 апреля, сб
сб1700:00+2с22725 0.0 103028
03:000ссз22750 0.0 103136
06:00+1ссз27755 0.0 1031183
09:00+7ссз34525 0.0 1030815
12:00+9ссз464680 0.0 10291499
15:00+11ссз584199 0.0 10282125
18:00+9ссз495310 0.0 1027859
21:00+5ссз410675 0.0 1028611